Hourly Data Report for March 10, 2006

TORONTO CITY
ONTARIO

43°40'00.000" N
79°24'00.000" W
112.50 m
6158355
71508
XTO

Download Data

Hourly Data (March 2006)
Hourly Data Report for March 10, 2006
TIME
LST
Temp Definition
°C
Dew Point Definition
°C
Rel Hum Definition
%
Precip. Amount Definition
mm

Wind Dir Definition
10's deg

Wind Spd Definition
km/h
Visibility Definition
km
Stn Press Definition
kPa
Hmdx Definition


Wind Chill Definition


Weather Definition


00:00 8.5 8.2 98   LegendMM LegendMM   97.98     LegendNANA
01:00 8.1 7.5 96   LegendMM LegendMM   97.92     LegendNANA
02:00 8.3 6.9 91   LegendMM LegendMM   97.88     LegendNANA
03:00 9.2 6.2 81   LegendMM LegendMM   97.81     LegendNANA
04:00 9.6 6.8 83   LegendMM LegendMM   97.73     LegendNANA
05:00 8.3 6.0 85   LegendMM LegendMM   97.63     LegendNANA
06:00 9.7 5.8 77   LegendMM LegendMM   97.62     LegendNANA
07:00 9.2 7.1 87   LegendMM LegendMM   97.70     LegendNANA
08:00 9.1 8.1 93   LegendMM LegendMM   97.78     LegendNANA
09:00 8.6 7.9 95   LegendMM LegendMM   97.85     LegendNANA
10:00 9.1 8.5 96   LegendMM LegendMM   97.98     LegendNANA
11:00 11.2 9.3 88   LegendMM LegendMM   98.15     LegendNANA
12:00 9.6 6.0 78   LegendMM LegendMM   98.49     LegendNANA
13:00 9.0 4.5 73   LegendMM LegendMM   98.81     LegendNANA
14:00 7.5 3.6 76   LegendMM LegendMM   99.07     LegendNANA
15:00 6.8 2.8 76   LegendMM LegendMM   99.30     LegendNANA
16:00 5.9 2.4 78   LegendMM LegendMM   99.49     LegendNANA
17:00 5.5 2.0 78   LegendMM LegendMM   99.64     LegendNANA
18:00 5.3 1.7 78   LegendMM LegendMM   99.83     LegendNANA
19:00 5.3 1.5 76   LegendMM LegendMM   100.02     LegendNANA
20:00 5.3 1.5 76   LegendMM LegendMM   100.11     LegendNANA
21:00 5.5 2.0 78   LegendMM LegendMM   100.25     LegendNANA
22:00 5.4 2.3 80   LegendMM LegendMM   100.35     LegendNANA
23:00 4.5 1.3 80   LegendMM LegendMM   100.40     LegendNANA

Notes on Data Quality.

Legend

  • E = Estimated
  • M = Missing
  • NA = Not Available*
  • [empty] = Indicates an unobserved value
Date modified: